{"data":{"norad_id":51885,"intl_designator":"2022-022AK","name":"STARLINK-3584","alt_names":[],"object_type":"PAYLOAD","status":"ACTIVE","operator":null,"country":"US","launch_date":"2022-03-03","launch_site_code":"AFETR","launch_vehicle":null,"mission":null,"orbit_class":"UNKNOWN","rcs_meters":null,"size_class":null,"mass_kg":null,"dimensions":null,"purposes":["comms"],"wikipedia_slug":null,"has_3d_model":false,"image_url":null,"decayed_at":null,"tle_current":{"epoch":"2026-09-20T04:22:25.770144Z","epoch_age_seconds":83662,"freshness":"FRESH","line1":"1 51885U 22022AK  26263.18224271  .00001298  00000+0  50808-4 0  9995","line2":"2 51885  53.1590 191.3798 0001107  95.5051 264.6078 15.33545041252805","mean_motion":15.33545041,"eccentricity":0.0001107,"inclination_deg":53.159,"raan_deg":191.3798,"arg_perigee_deg":95.5051,"mean_anomaly_deg":264.6078,"bstar":5.0808e-5,"rev_number":25280,"period_min":93.900078673985,"perigee_km":464.48797658113,"apogee_km":466.00310147527,"semimajor_km":6843.3825390282,"source":"CELESTRAK","updated_at":"2026-09-20T09:00:39.972140Z"}}}